Regional Weather Roundup
Issued by NWS

Home | Current Version | Previous Version | Text Only | Print | Product List | Glossary On
Versions: 1 2 3 4 5 6 7 8 9 10 11 12 13 14 15 16 17 18 19 20 21 22 23 24 25 26 27 28 29 30 31 32 33 34 35 36 37 38 39 40 41 42 43 44 45 46 47 48 49 50
000
ASUS44 KEWX 270512
RWRTX
SOUTH TEXAS REGIONAL WEATHER ROUNDUP
NATIONAL WEATHER SERVICE AUSTIN/SAN ANTONIO TX
1200 AM CDT SAT MAY 27 2017

NOTE: "FAIR" INDICATED FEW OR NO CLOUDS BELOW 12,000 FEET WITH NO
SIGNIFICANT WEATHER AND/OR OBSTRUCTIONS TO VISIBILITY.

* - THESE STATIONS ARE NOT NWS OR FAA STATIONS...AND ARE NOT SUBJECT
    TO NWS AND FAA QUALITY CONTROL.

TXZ171-172-183>190-270600-
TEXAS HILL COUNTRY AND EDWARDS PLATEAU

CITY           SKY/WX    TMP DP  RH WIND       PRES   REMARKS
JUNCTION       CLEAR     81  71  71 CALM      29.90R
*LLANO         PTCLDY    77  72  83 CALM      29.90S
BURNET         CLOUDY    79  73  82 S9G17     29.90S
*HORSESHOE BAY NOT AVBL
*KERRVILLE     CLOUDY    76  74  93 SE6       29.92R
*FREDERICKSBRG MOCLDY    77  72  84 S6        29.92R
*ROCKSPRINGS   CLEAR     75  72  88 S8        29.95S
*BOERNE STAGE  CLOUDY    77  73  88 S6        29.92R
*CASTROVILLE   CLOUDY    80  74  81 SE9       29.89S
HONDO          MOCLDY    81  76  84 SE10      29.88R
*UVALDE        MOCLDY    80  76  88 CALM      29.88R
DEL RIO        PTCLDY    80  74  81 SE7       29.84R
LAUGHLIN AFB   PTCLDY    78  74  86 SE5       29.85R
CARRIZO SPRGS  CLOUDY    86  77  74 SE13      29.83R HX  97
*EAGLE PASS    NOT AVBL
$$

TXZ173-191>194-202-209-217>225-228-270600-
CENTRAL AND SOUTH CENTRAL TEXAS

CITY           SKY/WX    TMP DP  RH WIND       PRES   REMARKS
GEORGETOWN     CLOUDY    81  72  74 S13       29.87R
AUSTIN/BERGSTM CLOUDY    81  76  84 S14       29.87S
AUSTIN/MABRY   CLOUDY    80  75  84 VRB7      29.89S
*AUSTIN/EXEC   CLOUDY    79  75  89 S9        29.89S
*LAGO VISTA    CLOUDY    79  75  86 S9G20     29.90R
SAN MARCOS     CLOUDY    79  75  89 S10       29.89S
NEW BRAUNFELS  CLOUDY    80  75  84 S13       29.87S
RANDOLPH AFB   CLOUDY    79  79 100 S10       29.88S
PT SAN ANTONIO CLOUDY    80  76  85 SE13      29.86S
SAN ANTONIO    CLOUDY    80  75  84 SE12      29.89R
STINSON FIELD  CLOUDY    82  75  79 SE13      29.86R
*LA GRANGE     CLOUDY    81  77  88 S10       29.88R
*GIDDINGS      CLOUDY    79  74  84 S8        29.90R
*GONZALES      CLOUDY    81  78  91 S9G20     29.87S
$$

TXZ163>164-176>182-195>201-210>213-226-227-235-270600-
SOUTHEAST TEXAS

CITY           SKY/WX    TMP DP  RH WIND       PRES   REMARKS
COLLEGE STN    CLOUDY    79  75  87 S13       29.88S
*BRYAN         CLOUDY    78  75  91 S8        29.90S
*CALDWELL      NOT AVBL
*CROCKETT      MOCLDY    75  73  94 S8        29.92S
*BRENHAM       CLOUDY    81  76  84 S10       29.90S
HUNTSVILLE     CLOUDY    79  73  82 S6        29.90S
CONROE         CLOUDY    79  74  84 S13       29.91S
HOUSTON BUSH   CLOUDY    81  74  79 S12       29.91S
HOUSTON HOBBY  CLOUDY    79  75  87 S8        29.92S
*HOUSTON SW AP CLOUDY    78  74  89 S6        29.93S
PEARLAND       CLOUDY    82  76  81 S9        29.93S
HOUSTON HOOKS  CLOUDY    81  75  82 S7        29.91S
ELLINGTON FLD  CLOUDY    81  75  83 SE12      29.94S
SUGAR LAND     CLOUDY    80  76  87 S13       29.91S
*HOUSTON EXEC  CLOUDY    79  75  89 S12       29.92S FOG
*CLEVELAND MUN CLOUDY    78  75  88 S9        29.92F
*WHARTON       CLOUDY    79  73  83 SE12      29.92S
*COLUMBUS      CLOUDY    79  75  89 SE9       29.91R
*EAGLE LAKE    CLOUDY    80  78  93 S9        29.91S
$$

TXZ214>216-236>238-270600-
THE UPPER TEXAS COAST

CITY           SKY/WX    TMP DP  RH WIND       PRES   REMARKS
*ORANGE        CLOUDY    79  76  92 S8        29.97R
PORT ARTHUR    CLOUDY    79  75  87 S12       29.94S
GALVESTON      CLOUDY    81  78  91 S17       29.94S
ANGLETON       CLOUDY    81  77  88 S20       29.92S
*BAY CITY      CLOUDY    79  77  92 SE9       29.92R
PALACIOS       CLOUDY    78  77  96 SE16      29.90S
$$

TXZ229>234-239>247-270600-
TEXAS COASTAL BEND AND RIO GRANDE PLAINS

CITY           SKY/WX    TMP DP  RH WIND       PRES   REMARKS
VICTORIA       CLOUDY    80  76  87 SE14      29.90S
*BEEVILLE      CLOUDY    81  81 100 SE12G18   29.88S HX  91
ROCKPORT       CLOUDY    81  77  88 SE13      29.88S
*PORT ARANSAS  CLOUDY    79  77  92 SE14      29.89R FOG
*PORT LAVACA   CLOUDY    79  78  97 SE8G20    29.90S
*INGLESIDE     CLOUDY    82  78  88 SE17G25   29.89R HX  90
CORPUS CHRISTI CLOUDY    81  78  91 SE14G22   29.88R
CORPUS NAS     CLOUDY    82  79  90 SE18G25   29.88R HX  92
*ROBSTOWN      CLOUDY    82  77  86 SE12      29.89R HX  90
ALICE          CLOUDY    81  77  88 SE13      29.87R
KINGSVILLE NAS CLOUDY    82  80  94 SE14      29.87R HX  94
COTULLA        CLOUDY    84  76  76 SE10      29.85R HX  93
*FAITH RANCH   PTCLDY    84  73  70 E5        29.83S HX  91
LAREDO         CLOUDY    88  77  69 SE14      29.83R HX 100
$$

TXZ248>255-270600-
DEEP SOUTH TEXAS

CITY           SKY/WX    TMP DP  RH WIND       PRES   REMARKS
BROWNSVILLE    CLOUDY    83  78  85 SE16      29.89R HX  93
PORT ISABEL    CLOUDY    81  79  94 SE17      29.88R FOG     HX  90
*SOUTH PADRE   NOT AVBL
HARLINGEN      CLOUDY    80  80 100 SE16      29.87R
*HEBBRONVILLE  CLOUDY    82  74  77 SE9       29.88R
MCALLEN        CLOUDY    84  77  79 SE21G31   29.87R HX  94
*WESLACO       CLOUDY    80  77  88 S15       29.87R
FALFURRIAS     CLOUDY    82  77  86 SE10G16   29.87R
EDINBURG       CLOUDY    83  76  79 SE12G17   29.87R HX  91
*ZAPATA        CLOUDY    85  74  70 SE16G22   29.83R HX  93
$$

TXZ213>215-236>238-242>244-246-247-251-254-255-270600-
CMAN STATIONS

STATION/POSITION TIME  TEMP    WIND        PRES    WAVE
                       AIR SEA DIR/SP/G            HT/PER
                 (UTC) (F)     (DEG/KT/KT) (MB)    (FT/S)
SABINE PASS      0448   79 82  160/ 11/ 16 1015.3
SEA RIM ST PARK  0500   79     160/ 11/ 17 1014.6
NORTH JETTY/GLS  0448          150/ 16/ 18   N/A
EAGLE POINT      0448   79 79  170/ 14/ 17 1013.4
MORGANS POINT    0448   79 79  150/  6/ 12 1013.3
MISSION/ARANSAS  0400   81                 1012.0
PORT O`CONNOR    0448   79     140/ 16/ 19 1012.0
PORT ARANSAS     0400   80 81  130/ 18/ 20 1011.8
MALAQUITE BEACH  0448   80 82  120/ 18/ 22 1012.3
BAFFIN BAY       0448   80 82              1011.9
PORT ISABEL      0448   81 82  160/ 12/ 15 1011.9
$$

GMZ080-GMZ150>470-270600-
OFFSHORE BUOY REPORTS

STATION/POSITION TIME  TEMP    WIND        PRES    WAVE
                       AIR SEA DIR/SP/G            HT/PER
                 (UTC) (F)     (DEG/KT/KT) (MB)    (FT/S)
20 E GALVESTON   0350   79 79  160/ 16/ 17 1013.6    4/ 6
90 E PT ARANSAS  0350   80 79  120/ 16/ 19 1012.9    4/ 7
35 NE PT MANSFLD 0450   80     150/ 16/ 19 1011.4    5/ 7
200 E PT ISABEL  0450   80 80  140/ 17/ 21 1014.3    4/ 6
$$



USA.gov is the U.S. government's official web portal to all federal, state and local government web resources and services.